Weather History for CYZX - June, 2013

Change the Weather History Date:

Monday, June 10, 2013

  Actual Average Record
Temperature  
Mean Temperature 60 °F -  
Max Temperature 69 °F 74 °F 84 °F (2005)
Min Temperature 50 °F 51 °F 35 °F (1998)
Degree Days  
Heating Degree Days 6    
Growing Degree Days 10 (Base 50)    
Moisture  
Dew Point 51 °F    
Average Humidity 77    
Maximum Humidity 100    
Minimum Humidity 49    
Precipitation  
Precipitation 0.08 in 0.11 in - ()
Sea Level Pressure  
Sea Level Pressure 30.13 in    
Wind  
Wind Speed 3 mph ()    
Max Wind Speed 9 mph    
Max Gust Speed -    
Visibility 11.4 miles    
Events Rain    
Averages and records for this station are not official NWS values.
T = Trace of Precipitation, MM = Missing Value Source: Averaged Metar Reports

Daily Weather History Graph

Daily Weather History Graph

Search for Another Location

Airport or City:

Trip Planner

Search our weather history database for the weather conditions in past years. The results will help you decide how hot, cold, wet, or windy it might be!

Date:

Astronomy

Jun. 10, 2013 Rise Set
Actual Time 5:32 AM ADT 9:05 PM ADT
Civil Twilight 4:55 AM ADT 9:42 PM ADT
Nautical Twilight 4:06 AM ADT 10:32 PM ADT
Astronomical Twilight 3:02 AM ADT 11:36 PM ADT
Moon 7:21 AM ADT (6/10) 10:25 PM ADT (6/10)
Length of Visible Light 16h 47m
Length of Day
15h 32m
Waxing Crescent, 3% of the Moon is Illuminated
Jun 10
Waxing Crescent
Jun 16
First Quarter
Jun 23
Full
Jun 30
Last Quarter
Jul 8
New

Hourly Weather History & Observations

Time (ADT) Temp. Dew Point Humidity Pressure Visibility Wind Dir Wind Speed Gust Speed Precip Events Conditions
12:00 AM 53.6 °F 48.2 °F 82% 30.13 in 15.0 mi North 3.5 mph - N/A   Overcast
12:41 AM - - N/A% - 12.0 mi ENE 3.5 mph - N/A Rain Light Rain Showers
1:00 AM 51.8 °F 50.0 °F 94% 30.12 in 12.0 mi East 3.5 mph - N/A Rain Light Rain Showers
2:00 AM 51.8 °F 50.0 °F 94% 30.12 in 10.0 mi South 4.6 mph - N/A Rain Light Rain Showers
2:15 AM - - N/A% - 6.0 mi South 3.5 mph - N/A Rain Light Rain Showers
3:00 AM 51 °F 51 °F 98% 30.13 in 6 mi WSW 2.3 mph - - Rain Light Rain Showers
3:00 AM 51.8 °F 50.0 °F 94% 30.13 in 6.0 mi WSW 2.3 mph - N/A Rain Light Rain Showers
4:00 AM 51.8 °F 51.8 °F 100% 30.13 in 6.0 mi NNW 2.3 mph - N/A Rain Light Rain Showers
4:09 AM - - N/A% - 5.0 mi Calm Calm - N/A   Light Drizzle
5:00 AM 51.8 °F 50.0 °F 94% 30.12 in 4.0 mi Calm Calm - N/A   Light Drizzle
6:00 AM 51.8 °F 50.0 °F 94% 30.14 in 6.0 mi WSW 2.3 mph - N/A   Light Drizzle
6:38 AM - - N/A% - 12.0 mi SSW 2.3 mph - N/A   Overcast
7:00 AM 51.8 °F 51.8 °F 100% 30.15 in 12.0 mi SW 3.5 mph - N/A   Overcast
7:17 AM - - N/A% - 6.0 mi WSW 3.5 mph - N/A   Overcast
7:46 AM - - N/A% - 3.0 mi West 4.6 mph - N/A   Light Drizzle
8:00 AM 51.8 °F 51.8 °F 100% 30.16 in 3.0 mi West 4.6 mph - N/A   Light Drizzle
8:41 AM - - N/A% - 9.0 mi NW 3.5 mph - N/A   Light Drizzle
9:00 AM 54 °F 51 °F 86% 30.18 in 12 mi WSW 3.5 mph - - Rain Light Drizzle
9:00 AM 53.6 °F 51.8 °F 94% 30.18 in 12.0 mi WSW 4.6 mph - N/A   Light Drizzle
9:23 AM - - N/A% - 15.0 mi South 3.5 mph - N/A   Overcast
10:00 AM 55.4 °F 51.8 °F 88% 30.18 in 15.0 mi SW 2.3 mph - N/A   Overcast
11:00 AM 59.0 °F 51.8 °F 77% 30.17 in 15.0 mi North 2.3 mph - N/A   Mostly Cloudy
12:00 PM 60.8 °F 50.0 °F 68% 30.17 in 15.0 mi NNW 3.5 mph - N/A   Mostly Cloudy
1:00 PM 62.6 °F 53.6 °F 72% 30.16 in 15.0 mi West 5.8 mph - N/A   Mostly Cloudy
1:21 PM - - N/A% - 15.0 mi WSW 3.5 mph - N/A   Mostly Cloudy
2:00 PM 66.2 °F 51.8 °F 60% 30.14 in 15.0 mi Calm Calm - N/A   Mostly Cloudy
3:00 PM 66.2 °F 50.0 °F 56% 30.13 in 15.0 mi West 3.5 mph - N/A   Mostly Cloudy
4:00 PM 68.0 °F 48.2 °F 49% 30.12 in 15.0 mi WNW 8.1 mph - N/A   Mostly Cloudy
5:00 PM 68.0 °F 50.0 °F 52% 30.11 in 15.0 mi NW 6.9 mph - N/A   Overcast
6:00 PM 68.0 °F 50.0 °F 52% 30.11 in 15.0 mi NW 6.9 mph - N/A   Overcast
7:00 PM 68.0 °F 50.0 °F 52% 30.10 in 15.0 mi West 9.2 mph - N/A   Overcast
8:00 PM 64.4 °F 50.0 °F 59% 30.10 in 15.0 mi WNW 3.5 mph - N/A   Mostly Cloudy
9:00 PM 62 °F 49 °F 53% 30.09 in 15 mi West 5.8 mph - -   Mostly Cloudy
9:00 PM 62.6 °F 50.0 °F 63% 30.09 in 15.0 mi West 5.8 mph - N/A   Mostly Cloudy
10:00 PM 60.8 °F 50.0 °F 68% 30.09 in 15.0 mi WSW 8.1 mph - N/A   Mostly Cloudy
11:00 PM 59.0 °F 50.0 °F 72% 30.11 in 15.0 mi SW 3.5 mph - N/A   Mostly Cloudy